Wind_Speed
4 4 2 4 6 8 8 5 6 5 6 7 5 4 4 3 2 4 2 3 6 4 0 2 3 4 6 7 5 4 4 4 4 5 4 3 3 4 4 4 4 4 3 5 9 12 13 13 14 15 17 18 17 17 16 17 16 16 16 16 16 16 15 12 11 13 14 13 12 10 8 6 5 6 7 9 9 9 8 8 9 10 10 10 11 12
4 3 5 7 8 8 5 6 7 7 6 6 5 4 3 2 2 2 2 3 3 2 0 3 4 4 6 6 3 4 5 4 5 6 6 5 4 4 5 5 5 3 2 4 6 10 13 14 15 16 18 19 19 18 16 16 15 15 16 16 17 17 15 12 10 12 15 13 11 9 6 5 4 5 7 9 8 7 7 7 8 10 10 11 12 12
3 2 7 6 6 5 5 5 7 7 6 5 4 5 2 2 1 3 2 3 2 2 1 3 3 3 5 5 3 4 5 4 5 7 6 6 5 5 5 5 5 4 3 4 5 8 13 15 16 17 19 20 20 19 17 16 15 14 15 17 18 18 16 13 10 12 16 14 10 8 6 4 3 4 7 7 5 5 6 8 8 9 10 11 12 13
1 5 6 4 7 7 5 4 6 6 4 3 4 4 2 3 3 1 0 2 3 2 3 4 2 2 2 2 3 4 5 3 4 6 6 6 6 6 6 6 6 7 6 6 5 7 12 14 16 18 20 20 19 18 17 16 15 14 14 17 19 18 16 14 12 13 16 15 11 9 6 3 3 5 6 5 4 5 7 8 9 9 9 11 12 12
4 5 1 5 7 7 6 5 6 5 1 0 3 5 3 4 4 3 2 2 3 4 2 5 3 4 2 3 4 4 4 3 3 5 6 5 5 5 5 6 7 8 8 8 6 7 10 14 17 20 21 20 19 19 18 16 15 12 12 15 17 17 17 15 13 14 17 16 13 10 7 5 6 7 6 6 6 6 7 8 8 8 9 10 12 12
8 6 3 5 3 5 6 4 5 6 3 2 3 5 6 6 5 5 6 4 4 3 1 3 2 5 2 3 6 3 4 5 4 5 7 7 6 5 5 6 7 7 8 8 8 8 11 15 17 19 20 21 20 20 19 16 14 11 10 14 16 17 19 17 15 15 17 17 14 11 9 7 8 9 8 8 8 6 6 7 7 8 8 9 10 11
5 3 3 5 5 5 5 2 3 6 6 1 4 6 8 9 9 8 7 4 2 2 2 3 3 3 4 3 7 5 6 8 6 6 8 7 7 7 7 7 7 7 7 7 7 9 11 15 16 18 20 22 22 21 19 16 15 13 11 12 14 17 21 19 16 16 16 16 14 9 8 9 10 10 9 8 7 6 6 6 6 6 7 8 9 10
3 2 5 5 5 5 4 2 4 7 7 2 4 6 10 10 9 8 6 4 2 2 2 3 3 1 4 4 5 6 7 8 7 8 9 8 9 9 9 8 8 9 9 8 7 8 11 16 18 20 22 23 23 22 20 18 16 15 14 13 12 16 21 20 17 16 16 16 14 9 9 9 9 10 9 8 7 6 5 5 5 5 5 6 8 9
3 1 3 6 5 4 3 4 8 10 5 3 1 7 8 8 7 6 6 3 1 2 3 3 2 1 4 5 2 4 7 8 10 12 12 10 10 10 10 9 9 9 10 10 9 10 13 17 20 22 24 24 23 22 21 18 17 16 15 14 13 16 21 21 18 17 16 16 13 10 10 9 9 9 9 8 7 6 5 4 3 3 4 5 6 7
1 3 6 7 5 4 2 1 7 9 4 2 6 10 8 7 6 5 5 3 2 2 3 5 4 2 4 4 1 3 5 9 11 11 12 12 11 11 10 10 10 9 9 10 10 13 16 19 21 23 23 23 23 22 21 18 17 17 17 16 15 18 21 21 19 17 16 16 13 12 11 8 9 10 9 8 7 5 4 2 2 2 2 3 4 6
3 2 3 5 4 5 4 5 3 7 9 7 7 9 7 5 4 4 3 3 3 2 4 6 6 4 2 4 3 5 5 8 10 8 9 10 10 11 10 9 10 9 9 9 9 12 15 18 20 21 22 23 23 22 21 19 19 19 18 17 16 17 19 19 19 18 17 16 14 13 11 8 9 10 8 7 6 5 4 3 3 2 0 1 3 5
6 3 1 1 2 6 8 7 5 5 7 6 5 6 5 4 4 4 3 3 2 3 5 3 4 4 1 5 5 7 6 5 8 10 11 13 12 12 10 9 10 9 10 9 8 9 11 14 16 18 21 22 23 22 22 21 21 20 18 16 16 16 16 16 18 19 19 17 14 13 11 9 10 10 7 6 6 6 6 5 4 3 2 0 2 3
5 1 1 1 1 4 8 7 5 5 4 5 5 5 5 3 3 2 2 1 1 4 3 1 3 2 4 7 7 9 10 8 9 11 13 14 14 12 11 10 9 9 10 10 9 8 9 12 15 18 21 22 23 24 23 23 22 20 18 17 17 16 15 15 16 18 19 17 14 13 12 11 11 11 8 6 6 6 7 7 6 5 4 2 2 2
3 5 2 3 1 0 6 7 3 0 1 5 5 4 4 3 3 1 2 2 2 3 2 1 2 1 4 6 7 10 11 11 11 10 11 13 14 14 13 11 9 9 10 9 10 9 9 13 17 20 22 23 24 25 25 24 23 21 19 18 17 16 15 15 16 17 18 16 13 13 14 13 12 12 10 9 8 8 8 8 8 7 6 5 4 3
1 3 1 4 2 2 3 4 6 5 3 3 3 5 4 4 3 2 3 2 2 2 2 2 1 2 2 3 6 8 8 7 8 8 7 9 10 10 9 9 9 9 10 9 10 10 11 17 20 21 22 24 26 26 26 25 24 22 20 19 18 16 15 15 15 16 17 15 13 13 15 15 13 13 11 10 10 9 10 10 10 10 9 7 6 5
2 3 6 4 3 4 3 2 5 7 4 2 2 4 1 3 4 1 1 4 2 1 1 1 2 4 4 4 3 3 4 1 5 6 6 7 7 8 8 9 9 9 9 9 10 10 12 18 21 22 23 24 26 27 27 26 25 24 21 20 18 16 15 15 15 15 15 15 14 14 16 15 14 13 12 11 11 11 11 12 12 12 11 9 8 6
2 3 5 3 1 4 5 4 4 4 3 2 1 2 4 4 7 4 0 1 3 1 1 1 3 5 3 3 4 5 5 4 5 6 7 7 8 9 9 9 10 10 10 10 10 10 12 17 20 22 24 25 27 28 29 29 27 25 23 22 20 17 16 16 15 15 14 15 15 15 15 14 13 13 12 12 12 12 13 14 14 13 12 11 10 8
3 2 6 1 2 1 3 4 4 3 5 4 2 4 3 2 4 4 1 3 4 0 3 2 3 5 2 2 4 5 5 3 3 5 6 7 9 10 10 10 11 11 11 11 10 10 13 17 20 22 25 28 30 30 31 30 28 25 24 23 22 19 18 18 16 16 16 15 15 14 14 14 13 13 12 12 12 13 14 13 12 11 12 12 11 10
3 0 6 2 2 2 3 6 4 4 3 5 4 3 3 2 0 1 1 0 1 1 3 3 4 3 2 3 4 1 3 4 4 5 6 8 10 10 10 10 10 9 9 9 9 8 11 16 20 23 24 27 29 30 31 31 29 27 25 24 23 20 19 18 17 17 17 17 16 15 14 13 13 12 12 11 12 12 12 11 10 11 12 13 12 11
2 2 4 5 1 1 3 4 1 3 2 3 2 2 2 2 3 2 1 2 1 0 2 3 4 3 5 5 4 6 7 8 7 7 8 10 11 10 10 10 10 10 10 10 10 9 11 17 22 25 26 28 29 30 30 31 30 29 27 26 24 22 20 20 19 18 18 18 17 16 15 14 13 12 12 11 10 11 11 11 11 12 13 13 13 13
3 3 2 5 2 3 1 2 5 6 3 1 2 0 1 1 2 1 1 1 2 2 2 1 3 5 6 4 6 8 7 9 10 10 9 10 11 10 10 10 10 11 11 10 11 10 12 17 22 24 26 27 28 28 28 30 30 29 29 27 26 24 23 22 22 21 20 19 18 17 16 15 14 13 13 12 11 11 12 12 13 13 14 14 14 14
2 3 2 2 1 2 4 5 5 8 7 5 4 4 3 3 3 1 2 3 1 2 3 2 1 6 6 3 5 6 5 7 10 10 9 9 11 10 10 11 11 12 12 12 12 11 12 17 21 22 23 24 25 26 28 29 30 29 29 29 27 26 25 24 23 22 22 20 19 19 17 16 15 14 14 14 13 12 13 14 15 15 15 15 15 15
3 4 3 1 3 5 7 5 2 5 5 5 3 3 4 3 4 4 2 3 1 2 1 3 0 6 6 3 5 5 5 6 7 8 8 8 10 10 9 10 10 11 11 12 11 10 13 18 21 22 23 24 25 27 28 29 30 30 30 30 29 28 27 25 24 23 23 22 21 21 19 17 16 15 15 15 15 15 15 16 16 17 17 17 17 17
2 3 2 2 4 4 6 4 3 3 4 5 1 2 4 3 3 5 4 3 3 2 2 2 1 6 6 3 4 5 4 5 6 7 7 7 7 8 9 9 10 9 9 9 9 9 12 16 18 19 21 23 24 26 27 29 30 30 30 30 30 29 28 27 25 24 24 23 23 22 21 20 18 17 18 18 18 18 17 17 18 18 18 18 18 18
0 1 2 2 4 6 6 5 5 4 1 2 2 1 4 4 5 4 2 3 1 3 5 4 3 6 6 4 4 4 2 2 4 6 6 6 6 7 8 8 8 8 8 9 9 8 10 12 15 18 21 23 24 26 27 29 30 30 30 31 31 31 30 28 27 26 25 24 24 23 22 22 21 20 21 21 20 20 19 19 19 19 19 19 19 19
2 2 3 4 2 2 1 2 3 3 2 1 2 1 3 5 7 4 2 3 1 3 4 5 4 6 7 6 6 6 4 1 3 4 4 6 6 7 8 8 8 8 9 11 11 10 11 11 14 18 21 23 25 26 27 28 30 30 30 31 32 32 31 30 29 28 27 26 25 25 24 23 23 23 23 23 23 22 21 20 20 19 20 20 20 20
4 2 2 6 6 6 6 6 5 3 2 3 3 2 3 4 6 5 3 2 4 3 2 5 6 4 8 7 5 6 4 3 3 3 4 5 6 6 7 8 7 8 9 10 10 10 10 11 13 18 21 23 25 27 28 29 30 31 31 31 32 32 32 31 30 29 28 28 27 27 26 25 24 24 23 23 23 23 23 22 21 21 21 21 21 22
4 1 1 5 6 7 8 7 4 1 2 5 4 3 4 4 6 6 4 5 5 5 4 7 5 4 7 7 6 7 6 5 5 5 6 6 6 5 5 6 7 7 7 8 10 10 12 12 12 16 20 23 24 26 27 28 30 31 32 32 32 32 32 32 31 30 30 29 29 29 28 27 25 25 24 24 24 24 24 23 23 23 23 23 22 23
5 0 1 2 4 6 4 4 3 2 2 3 5 6 5 6 7 7 6 6 7 6 6 6 7 6 7 7 7 8 7 6 5 5 5 4 5 5 6 8 8 9 9 10 11 11 11 11 10 14 19 22 24 25 26 27 28 29 30 31 32 32 33 32 31 31 31 30 31 30 29 28 27 26 26 26 26 26 26 25 25 24 24 24 24 23
4 1 1 1 4 7 5 4 2 3 2 3 5 6 5 7 9 8 5 4 6 6 5 5 6 8 8 7 8 7 5 5 3 3 4 4 6 7 8 9 9 9 10 12 12 11 10 10 10 13 17 19 22 25 26 26 28 29 30 31 31 32 33 33 31 31 31 31 32 31 29 29 28 27 27 27 28 28 27 27 26 25 24 24 24 24
2 1 1 3 3 7 6 6 3 1 3 4 5 4 2 4 4 4 2 4 3 4 3 6 3 7 7 6 6 4 2 4 3 4 5 5 6 7 8 8 9 10 10 11 12 11 11 12 13 14 17 20 24 26 27 28 30 30 31 31 32 33 34 33 32 32 32 33 33 31 30 30 30 30 30 29 30 29 29 28 26 25 25 25 25 26
3 1 1 5 3 6 5 7 7 3 3 2 7 6 3 4 3 3 3 5 5 4 3 3 1 6 6 4 3 2 2 4 4 4 4 4 6 8 9 9 10 10 11 11 11 11 12 13 14 16 20 23 25 26 28 30 29 29 31 32 33 34 33 32 32 32 33 34 33 32 32 32 31 31 31 31 31 30 29 28 27 26 26 26 27 27
1 2 1 3 1 5 5 5 5 4 6 4 7 5 6 5 3 2 2 4 6 6 6 4 5 6 4 3 2 2 2 4 6 5 5 5 7 8 9 10 10 10 11 11 11 12 13 14 16 19 24 26 27 30 32 33 31 32 34 35 35 33 31 32 33 33 34 34 34 33 33 33 32 32 32 32 31 30 29 29 28 29 29 28 29 29
2 4 1 1 1 5 7 6 4 3 2 5 6 5 6 6 5 5 4 5 6 5 3 4 6 5 4 4 5 6 5 4 4 4 4 5 7 8 8 9 9 9 9 10 11 12 12 14 18 22 26 29 32 34 34 33 33 35 35 34 33 31 31 32 33 33 34 35 35 34 34 33 32 33 34 33 31 30 30 30 31 31 30 29 30 30
3 4 1 1 2 2 4 5 4 2 5 8 6 3 5 6 6 6 4 5 6 6 4 5 7 7 6 6 5 5 5 4 2 2 4 5 6 7 7 8 8 8 8 9 10 9 10 14 18 21 25 29 31 31 30 31 33 33 31 30 29 29 31 32 32 33 35 35 35 35 34 33 33 34 34 33 31 31 31 32 33 32 32 32 32 32
4 4 2 2 1 1 2 4 1 6 7 7 7 4 1 1 3 4 1 6 6 7 6 6 7 6 5 5 5 5 4 3 2 2 5 6 6 7 7 8 8 9 10 11 12 13 16 20 23 25 28 29 28 27 28 31 32 30 28 28 28 29 31 31 31 33 34 34 35 35 34 34 34 34 34 32 31 32 33 34 35 35 34 32 31 30
6 4 2 1 1 1 1 1 2 4 7 6 4 1 1 0 2 5 2 6 7 6 7 5 5 6 4 3 4 4 1 3 4 5 5 5 6 7 7 7 8 9 10 12 15 18 21 25 27 28 28 27 27 28 31 32 32 30 28 27 27 29 30 29 31 32 33 34 35 36 35 35 34 34 33 32 32 33 35 36 36 36 33 31 31 31
5 3 4 4 1 3 3 1 3 3 4 5 5 4 3 2 5 5 3 4 7 5 6 5 4 5 2 2 2 2 3 5 1 5 5 5 6 6 6 6 7 10 11 12 14 16 19 22 24 25 25 25 26 28 27 25 24 24 25 27 28 28 28 28 31 33 33 35 36 37 35 34 33 33 33 33 34 36 37 38 37 36 33 33 34 34
3 1 4 4 1 2 4 2 2 2 4 6 7 8 7 4 4 3 1 5 7 5 6 6 6 6 5 5 5 4 5 3 4 6 5 6 6 5 6 6 7 9 12 14 16 17 18 19 19 20 21 22 24 24 22 21 21 22 23 26 27 27 27 29 32 34 35 37 37 35 34 33 34 35 35 35 36 38 39 38 36 34 33 32 33 32
5 4 4 4 3 3 4 2 3 4 4 4 5 8 9 5 1 2 0 6 7 5 5 7 7 7 6 6 5 4 5 4 5 6 5 5 5 5 7 7 7 9 12 13 15 16 16 17 18 19 21 23 24 24 25 26 27 27 29 28 26 26 29 32 35 36 36 37 35 33 34 35 36 36 36 37 39 38 37 35 33 32 30 29 28 28
3 3 2 3 4 4 4 3 3 3 3 4 8 10 8 4 1 3 4 7 7 5 5 7 6 6 6 6 5 4 5 6 5 5 4 2 3 5 7 6 7 9 12 13 13 14 15 17 20 22 24 24 25 25 27 27 28 30 31 28 26 29 33 36 36 36 35 35 34 33 35 36 36 36 37 38 37 35 34 33 31 30 28 26 25 25
2 2 1 2 3 3 4 3 2 3 3 4 9 8 4 0 3 4 5 7 7 7 6 5 6 6 6 6 6 5 5 5 3 4 4 1 3 5 5 4 6 7 9 10 12 15 17 18 20 22 23 24 25 27 27 27 29 30 29 27 28 33 36 36 35 34 34 34 32 32 33 34 35 36 36 35 34 32 31 30 28 27 26 24 24 25
0 0 1 2 3 1 2 2 1 4 3 5 8 5 3 0 4 5 7 8 6 6 5 5 5 6 6 6 6 5 4 2 0 2 2 1 2 5 4 4 7 7 9 10 13 17 18 19 20 22 22 23 25 26 25 26 28 28 26 26 31 35 34 33 33 33 32 32 31 32 32 33 34 34 32 32 31 30 29 28 25 24 22 21 21 25
0 1 1 2 2 2 2 2 3 5 4 4 4 1 1 3 4 5 5 6 6 5 4 5 4 4 6 6 5 4 3 1 1 1 1 1 2 4 4 2 4 6 9 10 12 15 17 17 18 19 17 17 20 23 24 26 27 25 24 27 31 32 31 31 30 29 29 29 30 31 32 31 31 29 28 29 28 27 26 25 22 20 19 19 21 26
2 3 2 1 2 2 4 5 4 3 4 3 1 3 4 5 5 4 3 1 4 6 4 5 6 4 4 4 4 4 3 2 2 2 1 1 2 2 3 2 0 3 6 7 8 12 16 16 15 14 12 12 15 19 22 24 25 25 25 27 29 29 28 27 25 24 25 27 28 29 29 28 26 26 26 26 26 25 24 23 22 20 20 21 24 27
3 1 3 1 2 2 2 3 2 2 4 4 3 4 4 3 4 4 2 4 3 5 4 5 6 7 6 3 0 1 2 3 3 2 2 4 4 5 5 5 5 2 3 5 6 9 13 13 11 9 9 9 12 16 19 22 24 24 24 24 25 25 24 22 20 20 22 23 25 25 24 23 22 22 22 22 22 23 23 23 22 21 22 24 27 28
2 1 1 1 1 1 1 3 3 3 4 5 4 3 2 3 4 4 4 4 3 4 6 7 7 8 8 7 4 4 4 2 1 2 4 5 6 6 6 7 8 7 4 1 3 6 9 10 9 8 9 9 11 13 15 18 21 22 23 22 21 19 18 17 18 20 21 22 21 20 19 18 18 17 17 17 18 19 20 21 22 22 23 26 27 26
2 1 1 1 0 1 4 6 5 3 5 4 2 2 2 4 6 6 5 3 4 6 7 9 10 10 9 9 8 5 5 6 5 4 5 5 5 6 6 7 8 10 10 7 4 2 3 4 5 5 6 7 8 11 13 15 18 19 21 21 19 16 16 17 18 19 18 17 15 15 14 14 13 14 14 15 16 17 19 20 21 23 25 26 26 25
1 1 2 0 1 3 5 5 3 3 5 5 2 1 1 2 5 7 7 5 6 8 9 10 10 10 10 11 11 7 7 8 6 6 7 6 6 6 7 9 10 13 15 13 9 6 4 3 2 2 2 3 3 7 10 11 12 15 16 17 17 16 15 15 14 12 11 10 9 9 9 9 10 11 12 13 14 16 18 19 20 22 24 24 24 24
2 2 2 1 1 4 5 5 3 2 3 5 4 3 2 4 6 7 7 7 7 7 8 9 10 10 13 14 13 10 7 7 6 7 8 7 7 8 10 12 14 16 18 17 13 11 10 9 7 6 6 5 3 2 3 3 4 6 9 10 11 10 10 9 8 7 7 7 6 7 7 7 8 9 10 12 13 15 16 18 19 20 22 21 21 22
3 3 4 4 3 5 6 6 4 2 2 4 3 3 4 3 5 5 7 7 7 6 6 7 9 9 11 15 16 14 9 7 7 9 8 8 9 12 15 16 16 16 18 19 18 16 15 13 12 11 11 10 9 9 9 8 7 5 2 1 4 5 4 4 3 4 4 4 5 5 6 6 7 8 10 11 13 14 16 17 18 19 20 20 21 21
Wind_Direction
99 106 174 186 185 195 200 170 134 132 122 127 127 116 144 153 227 239 232 192 145 111 68 139 138 182 186 192 185 159 147 149 169 178 180 184 182 179 180 186 181 184 201 190 190 195 194 190 182 177 174 170 167 163 160 158 157 155 153 150 147 145 143 137 128 133 139 137 137 139 131 120 100 91 100 103 98 92 89 79 67 62 60 55 48 40
69 113 220 220 202 192 170 134 112 98 88 97 117 122 128 163 230 262 156 161 134 99 147 131 141 197 202 202 196 153 161 179 183 184 188 193 198 190 180 187 185 181 176 161 174 188 190 188 184 181 177 175 174 170 168 165 162 161 162 159 156 154 149 141 136 146 150 146 145 144 136 132 114 101 116 114 99 91 94 82 67 61 55 50 45 37
33 239 244 218 182 134 109 114 101 93 88 82 103 118 127 205 176 17 65 115 57 55 180 146 143 230 228 216 223 181 176 194 196 193 192 188 194 195 188 188 179 166 166 165 170 183 188 187 184 184 181 180 180 176 174 173 169 167 166 166 164 161 156 150 151 157 155 150 147 145 144 144 132 124 133 127 107 100 97 86 74 61 53 46 41 34
34 258 262 181 152 122 103 116 98 86 83 89 114 123 178 209 140 62 7 79 50 65 155 144 106 301 245 211 242 214 189 194 198 200 205 193 193 198 191 185 177 175 178 179 180 187 188 186 184 184 183 181 180 178 178 177 175 172 171 173 170 169 166 161 162 162 159 156 154 155 155 154 150 145 146 141 126 115 100 88 78 63 54 42 36 33
254 252 265 100 139 136 119 139 132 119 107 166 158 153 177 185 163 162 151 101 44 37 110 116 45 318 212 185 238 218 185 217 200 189 211 218 209 202 186 185 188 183 180 180 183 190 188 186 186 186 184 182 180 179 178 176 176 172 174 176 175 178 177 169 165 165 164 162 162 165 158 147 143 141 147 149 137 123 103 89 79 68 55 39 34 34
266 244 143 102 128 135 128 161 173 153 148 299 228 181 158 149 139 121 119 95 43 4 284 105 48 298 273 211 230 203 181 217 202 187 210 216 209 202 191 193 196 191 186 183 182 184 188 188 188 187 185 183 182 181 178 178 178 173 177 181 180 185 183 176 170 169 170 169 169 170 160 148 144 141 145 145 138 128 107 92 85 75 56 38 34 35
259 260 132 146 153 141 136 173 200 152 125 321 247 171 134 126 129 133 132 108 87 241 276 85 123 270 311 260 223 191 194 218 211 206 214 208 202 203 201 197 192 192 190 185 181 181 187 188 186 187 188 186 185 184 181 181 180 176 180 186 187 190 187 180 173 173 177 177 177 176 162 153 153 151 149 148 143 132 116 104 92 73 54 39 33 35
223 22 62 124 126 131 146 201 201 148 126 241 252 143 127 127 136 140 124 103 159 202 343 37 118 218 300 270 231 179 186 220 223 222 221 209 204 204 204 199 189 191 188 181 184 186 190 189 187 188 189 189 188 186 184 184 185 181 180 184 189 192 190 183 177 180 184 183 184 182 166 159 163 163 158 157 151 139 130 116 96 69 53 43 35 38
205 114 133 136 109 142 193 214 175 136 110 265 229 115 119 117 122 121 101 93 114 83 336 302 129 152 267 281 304 162 187 225 224 220 219 211 207 204 202 198 191 191 188 184 186 187 191 191 190 191 189 190 190 188 188 189 189 185 179 179 183 188 189 186 183 187 189 189 189 182 171 165 168 172 165 160 156 152 147 124 103 77 59 47 37 44
267 212 172 136 129 181 212 206 159 129 110 182 105 92 84 79 85 82 89 99 49 39 274 243 175 151 271 277 36 138 202 229 222 218 215 211 208 204 201 196 189 187 188 190 190 188 191 191 191 191 189 189 189 190 191 191 190 185 181 181 182 184 189 190 190 191 193 194 191 182 177 172 171 172 168 164 165 169 170 146 132 111 65 44 38 50
318 279 152 120 156 171 105 64 82 108 122 131 99 85 74 51 48 50 60 78 54 337 271 236 188 150 287 272 200 176 217 219 208 210 211 208 208 204 202 195 187 186 188 190 190 188 187 188 189 188 187 187 189 190 191 191 189 187 187 188 186 185 188 191 193 194 194 194 190 184 185 186 182 179 178 184 191 199 206 199 176 168 118 41 42 48
352 20 28 27 137 119 95 68 40 68 105 106 89 95 84 21 11 30 3 30 75 260 275 252 180 134 215 265 225 218 247 223 193 200 201 201 203 202 200 194 187 185 185 184 184 179 173 177 183 185 185 186 187 189 191 190 189 190 192 189 184 183 185 189 193 194 195 193 190 192 195 197 193 191 199 214 220 220 225 225 213 215 225 257 27 28
351 343 333 8 51 106 103 85 44 12 33 83 99 92 79 30 12 22 330 344 188 245 274 185 147 135 237 253 246 237 246 232 205 203 199 195 195 196 196 193 186 180 183 182 180 174 169 175 180 182 184 185 187 189 190 190 190 192 192 186 183 184 185 190 194 195 198 199 201 205 206 204 199 202 217 232 234 234 239 241 238 241 244 260 305 336
331 319 23 100 303 306 114 115 128 269 79 133 132 109 107 99 59 341 273 293 265 263 291 198 177 285 275 267 250 234 237 228 212 206 199 192 191 192 191 185 178 178 182 182 180 177 178 181 181 182 184 184 187 190 190 191 192 193 191 186 187 190 191 195 199 200 204 207 212 214 211 209 207 211 225 237 242 246 251 252 255 259 257 259 275 283
125 307 262 151 218 217 131 142 153 138 126 160 153 119 130 148 140 225 233 213 248 266 322 331 188 201 230 255 238 233 254 241 207 195 187 187 189 183 176 171 171 179 183 182 183 182 184 185 182 182 184 185 187 190 190 191 193 194 192 189 191 196 199 203 205 206 209 210 213 214 210 210 213 220 230 239 247 252 253 255 260 263 258 253 259 265
97 255 247 250 246 174 159 175 135 104 96 189 147 104 133 182 143 90 186 174 183 188 318 295 224 217 222 254 277 289 306 249 168 164 155 162 165 156 163 174 175 180 182 182 185 186 187 185 182 182 183 185 187 189 190 192 195 196 193 192 196 200 204 208 208 208 209 209 212 213 211 213 218 225 232 237 244 250 253 261 268 268 256 246 250 253
81 283 277 313 338 172 177 177 132 109 135 155 118 180 230 172 123 102 172 98 73 110 272 267 262 294 309 299 327 11 26 67 123 148 156 159 157 160 177 183 178 182 183 183 186 186 184 183 184 185 183 184 187 190 191 194 197 197 194 194 199 203 205 206 207 205 205 206 208 209 211 215 220 227 234 240 247 255 262 269 273 267 249 239 245 247
139 281 294 331 90 230 183 121 60 57 119 121 187 212 200 112 93 103 125 8 41 169 285 307 266 297 345 316 325 16 50 79 141 156 157 158 164 175 187 185 182 183 181 183 184 181 182 183 185 186 186 187 189 191 192 194 197 197 195 197 201 205 205 203 202 202 203 205 205 206 211 217 225 232 241 249 257 262 267 269 268 258 243 238 241 240
128 352 300 285 129 325 17 81 41 352 77 116 179 181 112 115 246 69 113 1 38 311 296 309 297 279 205 230 286 292 174 185 185 171 167 174 180 186 189 186 182 176 173 180 180 178 182 185 186 187 187 189 191 193 194 195 197 197 197 199 202 206 207 204 202 202 205 208 209 213 219 226 233 239 247 257 261 258 259 260 257 252 245 239 238 237
105 93 294 290 209 43 27 78 175 272 353 61 94 66 58 134 164 150 139 168 161 326 286 313 332 290 230 222 215 220 208 184 179 188 191 190 190 190 187 181 177 175 178 181 181 183 184 186 188 188 188 190 191 194 194 195 197 198 199 200 202 206 207 206 205 205 209 213 216 220 225 230 236 242 248 256 259 254 252 252 251 251 247 240 237 235
69 97 234 293 330 101 100 215 190 187 186 102 96 206 287 72 135 166 29 77 130 141 182 300 325 275 252 210 194 223 218 186 184 192 197 198 194 194 188 180 179 181 183 183 183 184 185 186 188 188 189 189 190 192 194 196 198 199 200 201 203 205 206 206 206 208 211 214 218 223 227 232 238 244 247 251 257 256 251 249 250 251 247 241 238 235
115 124 171 294 338 158 234 243 190 176 176 158 166 199 189 146 130 128 319 317 84 119 165 160 275 273 260 198 205 231 217 201 199 192 194 199 195 195 191 184 183 182 183 185 184 182 182 184 184 184 185 185 187 191 194 197 199 200 202 203 204 207 207 207 207 208 212 214 219 225 228 233 238 244 248 250 255 256 251 250 250 250 246 242 240 236
132 114 114 270 238 222 250 260 163 169 157 130 157 188 146 135 124 129 226 263 103 80 124 117 206 272 264 215 221 242 227 220 215 198 197 200 194 193 192 187 186 185 185 184 181 180 181 182 181 180 180 183 187 191 194 197 200 202 203 204 205 208 209 209 209 210 213 216 221 226 230 234 237 243 249 252 255 255 252 250 249 249 249 245 241 236
73 82 87 296 298 303 298 321 52 83 101 109 171 164 138 158 142 147 185 180 137 157 143 94 285 272 276 267 252 260 244 219 218 209 200 197 193 189 187 188 188 185 182 178 177 177 175 175 176 176 179 184 188 191 194 197 200 202 205 206 207 209 210 211 211 213 216 220 224 228 232 235 238 242 248 252 255 254 253 251 250 251 250 246 242 237
54 117 99 50 345 342 340 352 1 344 356 168 236 204 153 131 101 116 138 89 121 210 152 133 243 257 271 301 320 320 338 180 216 218 200 192 191 187 186 188 185 176 172 172 170 167 165 168 174 179 183 185 187 191 195 197 200 202 205 208 209 210 212 213 214 217 220 223 226 230 233 237 240 243 248 251 254 255 254 254 253 254 251 246 242 238
144 165 127 120 176 230 238 272 265 266 279 262 268 229 169 129 120 147 134 89 227 233 145 151 223 260 291 320 338 343 4 0 240 230 211 199 188 186 183 181 180 174 172 173 170 168 170 173 179 183 185 187 189 192 194 197 200 203 206 209 211 212 214 215 217 219 222 225 228 231 234 238 241 244 248 251 254 256 257 256 256 256 252 248 244 238
108 160 152 141 168 192 195 222 228 173 153 243 254 234 188 144 128 123 103 136 189 174 182 215 207 256 299 303 307 312 310 267 244 224 220 210 193 191 185 178 178 174 174 174 170 169 173 177 183 185 187 189 190 192 195 197 200 203 206 210 212 214 216 217 219 221 224 227 230 234 237 238 241 244 248 251 254 257 259 258 258 258 256 251 244 236
99 291 262 150 186 214 205 220 234 156 205 222 225 231 206 160 128 126 159 205 166 130 265 256 189 197 269 265 258 269 263 247 231 213 219 212 190 182 167 160 164 163 168 171 170 174 179 181 185 186 188 190 192 193 196 198 201 204 207 210 212 215 217 219 221 223 226 229 232 236 238 240 242 245 248 252 255 257 259 259 260 260 256 251 244 236
117 341 324 151 254 261 237 251 244 210 245 219 207 223 204 163 163 178 203 201 158 162 241 237 174 196 248 249 239 241 233 233 227 202 201 186 161 153 152 161 168 167 170 176 180 184 182 181 185 187 189 190 190 193 196 198 202 206 208 211 213 215 219 220 222 224 227 230 233 236 239 241 243 245 248 251 254 255 257 259 260 259 255 250 244 237
121 333 329 112 313 302 310 320 257 202 261 262 232 229 203 179 187 197 204 183 179 214 227 174 180 231 247 233 235 242 223 215 204 154 155 162 162 165 169 174 178 177 178 182 186 184 177 176 185 193 193 192 191 193 195 198 202 206 209 212 213 216 219 221 223 226 228 231 235 237 240 243 245 247 249 251 253 255 257 258 259 257 253 249 243 235
45 320 262 89 9 307 320 354 352 200 210 248 279 292 206 182 196 205 186 162 194 249 205 137 172 262 263 237 244 265 191 164 163 153 158 173 173 172 178 184 185 185 186 189 187 180 176 179 184 187 192 196 198 196 196 199 202 206 209 212 214 216 219 221 223 225 228 233 237 239 241 244 247 249 250 252 253 254 255 256 257 256 252 247 241 233
38 43 342 59 40 290 310 358 341 348 74 315 304 302 227 193 198 209 195 178 184 187 150 126 219 260 267 264 257 276 139 162 195 180 161 185 187 178 185 193 193 191 190 192 188 180 181 187 187 186 189 196 200 199 199 201 202 205 209 212 215 217 218 220 222 225 229 233 237 240 242 245 247 249 251 253 254 254 254 255 254 253 249 245 240 233
83 95 32 62 54 274 297 345 332 9 41 338 282 245 214 218 227 239 246 209 188 154 141 188 227 237 262 273 230 225 202 213 225 201 175 194 196 191 198 198 196 197 194 193 191 186 186 190 191 190 190 194 199 202 204 203 201 205 210 213 216 216 215 219 222 225 229 233 237 240 242 245 247 249 252 254 254 254 253 252 251 250 248 244 239 234
88 90 118 137 132 271 294 332 348 20 17 259 241 198 201 222 221 218 236 232 211 182 175 226 241 254 263 236 211 212 214 228 236 201 179 180 182 193 209 207 201 199 196 196 195 193 192 190 192 194 195 197 201 204 205 204 205 209 212 213 214 213 215 219 221 224 229 232 236 239 243 245 247 250 252 254 253 253 251 250 250 249 247 242 237 232
109 95 117 127 115 261 317 12 12 278 236 244 267 253 217 218 198 189 229 259 228 218 246 261 259 253 236 224 230 242 250 274 302 186 179 175 177 186 200 209 205 193 192 200 201 197 193 189 190 195 200 203 205 204 204 206 208 211 212 212 213 213 215 218 221 224 228 231 234 238 240 243 245 248 250 251 251 250 249 249 249 247 245 241 236 233
150 136 151 124 114 280 0 54 184 250 261 280 307 315 225 166 143 147 282 291 244 202 204 233 257 262 251 247 254 259 263 281 325 253 204 183 179 184 191 205 204 192 192 197 196 196 194 191 192 197 202 205 205 203 204 206 209 210 211 212 212 214 217 218 221 224 227 230 233 236 238 241 243 245 247 247 247 247 248 248 248 246 243 238 232 231
160 141 162 190 174 140 124 208 249 302 319 318 319 335 79 0 198 161 187 273 256 203 180 203 265 284 304 303 247 224 209 45 13 309 252 198 188 193 195 198 194 199 207 203 201 203 200 197 197 199 201 201 202 204 207 208 207 207 208 211 213 215 217 218 221 226 228 231 234 237 239 240 241 243 246 245 244 246 248 248 248 245 240 233 229 230
169 168 179 197 223 105 107 290 317 348 313 275 266 281 311 283 231 180 149 279 272 230 187 183 223 245 244 90 163 174 69 66 0 284 265 226 212 199 195 198 193 200 211 208 205 206 203 202 201 200 199 199 201 206 207 206 206 207 208 211 213 215 217 219 223 227 230 233 236 238 239 240 242 244 246 245 244 247 249 249 248 244 238 234 232 231
68 41 126 134 152 118 124 189 239 224 243 250 265 291 319 316 245 186 77 297 272 233 194 176 191 216 200 154 153 130 89 107 239 262 255 235 229 204 193 201 196 197 207 209 206 203 201 201 199 197 198 199 201 204 202 202 208 215 218 218 216 215 217 221 226 230 232 236 239 240 242 244 245 246 244 244 246 249 249 248 246 243 239 236 232 227
36 23 84 127 177 165 138 178 224 224 246 277 293 299 310 316 322 98 323 271 263 236 195 176 188 206 190 163 151 132 132 173 222 246 243 231 230 218 210 209 198 193 200 206 205 202 198 193 191 191 195 200 205 205 202 204 206 212 220 223 219 218 220 226 232 235 237 240 240 243 247 247 245 244 244 245 249 250 249 248 246 243 239 233 225 221
14 20 94 148 165 155 155 199 255 250 248 300 309 303 303 312 59 120 197 247 280 279 218 184 188 194 173 162 163 174 200 208 212 243 267 253 219 229 231 227 216 206 204 202 199 196 192 192 196 198 198 204 214 212 205 205 205 209 217 218 217 222 228 234 238 239 241 242 240 240 244 244 243 245 246 248 249 248 248 247 245 242 235 226 221 220
353 10 52 131 131 139 163 180 283 269 243 311 314 309 320 171 185 211 248 275 292 280 244 204 191 187 180 185 189 206 238 239 232 266 288 259 223 252 252 219 207 211 207 199 194 193 191 193 200 205 202 205 216 217 208 202 205 211 215 213 218 229 236 239 241 240 241 243 242 241 243 244 246 248 248 248 247 246 247 246 243 240 231 221 222 224
196 136 285 198 159 126 100 94 307 246 250 334 339 349 30 68 226 264 299 301 289 271 263 249 210 183 183 205 217 233 250 241 241 296 302 274 263 288 281 213 193 196 194 188 191 195 193 192 201 209 205 202 211 218 212 203 206 211 211 215 228 239 242 241 242 242 243 244 245 247 247 248 249 249 247 247 246 244 244 242 238 233 223 214 221 226
224 171 270 264 185 122 118 185 220 223 246 322 0 77 249 277 272 282 289 291 304 314 306 287 263 205 188 199 207 217 222 187 95 67 43 12 301 301 302 257 190 191 198 199 201 200 196 197 207 214 210 202 206 213 212 210 212 212 214 227 241 245 243 242 243 243 243 245 247 249 251 251 251 250 249 247 245 241 238 235 230 223 214 210 220 225
250 203 180 219 215 171 185 210 227 239 254 271 184 188 244 276 282 271 239 243 315 319 321 319 313 296 242 210 177 161 180 195 189 174 169 313 310 325 335 333 320 195 199 204 208 205 202 205 211 214 211 203 204 209 212 214 215 213 221 238 247 246 242 243 243 241 243 247 250 252 254 253 252 252 250 246 242 237 233 228 222 214 208 209 217 222
258 196 141 171 268 253 211 218 258 281 272 275 246 216 231 284 301 300 41 69 9 321 332 343 334 326 317 310 169 194 229 216 206 230 295 336 347 1 7 -0 351 335 192 191 201 202 202 204 206 206 206 204 204 208 211 215 215 217 229 243 247 244 244 243 241 243 248 251 254 255 255 254 252 249 247 244 241 237 233 228 222 215 211 213 217 220
308 82 122 262 315 340 258 260 266 253 257 283 301 277 278 354 346 345 30 62 49 11 12 20 15 360 348 347 352 340 331 335 326 333 0 12 9 7 13 11 5 9 29 123 190 188 189 195 197 197 202 207 210 212 214 217 220 227 237 243 244 246 249 248 247 250 252 253 255 256 255 254 251 246 242 239 235 233 231 228 223 218 216 217 217 218
344 3 301 282 149 187 242 250 257 265 257 257 296 331 322 345 355 356 359 29 68 55 40 38 36 26 12 356 344 350 13 11 9 29 38 28 17 14 14 13 18 28 36 43 59 114 165 196 208 214 225 228 222 219 221 225 230 237 242 244 247 251 251 248 246 247 248 250 252 254 254 253 249 243 239 236 232 229 227 225 222 222 225 227 225 223
143 270 268 1 330 299 280 264 271 316 297 272 243 217 235 3 6 351 341 6 51 58 54 52 48 45 40 17 353 357 27 21 16 42 50 34 21 20 14 16 30 40 43 46 51 55 54 41 14 342 323 310 243 220 223 230 237 241 242 243 246 245 239 234 231 231 236 241 244 248 251 250 246 243 238 234 232 231 231 230 230 232 236 239 239 237
145 227 211 107 324 288 276 252 206 187 278 274 274 290 340 43 33 3 344 1 31 45 55 63 57 52 52 40 17 7 16 19 25 49 56 44 27 22 23 26 32 36 39 44 50 54 56 57 52 53 56 47 51 160 189 211 232 241 242 237 233 226 219 216 213 214 223 231 235 243 248 247 244 242 239 237 234 232 233 236 239 241 244 246 247 247
180 197 183 171 204 244 260 251 201 158 263 255 250 316 343 33 62 40 3 355 4 15 37 62 63 57 57 50 36 21 359 351 23 49 57 48 35 34 37 38 37 35 35 40 45 46 50 57 61 64 67 63 61 70 73 65 57 43 10 233 195 187 186 200 215 220 225 233 243 251 252 250 248 243 240 239 238 236 236 238 241 244 246 248 250 250
Height
762 773 780 778 780 779 776 776 777 782 784 787 795 800 801 803 804 803 802 801 799 804 815 819 821 822 820 819 819 819 820 822 823 823 823 823 823 823 822 822 822 822 821 821 822 822 823 825 826 827 828 829 831 832 833 833 834 835 836 837 838 839 840 841 842 842 843 844 845 846 846 847 847 848 848 849 849 849 849 849 849 848 848 848 847 847
763 775 777 770 770 771 774 778 779 783 786 788 793 798 803 805 803 801 801 802 799 803 815 821 822 823 821 819 819 819 820 821 822 823 823 822 822 822 822 822 821 822 821 821 822 822 824 825 826 827 828 829 830 831 833 833 834 835 836 837 838 840 840 841 842 843 844 845 845 846 847 848 848 849 849 850 850 850 850 850 850 850 849 849 848 848
772 774 768 764 769 772 776 779 778 782 787 791 796 799 804 805 804 804 803 802 801 803 814 822 821 822 823 820 820 819 819 820 819 820 820 820 821 821 822 822 821 822 822 822 822 823 824 824 825 827 828 829 830 831 832 833 834 835 836 837 838 840 841 841 842 843 844 845 846 847 848 848 849 849 850 850 850 851 851 851 851 850 850 850 849 849
780 770 762 763 767 771 778 780 780 784 789 792 796 799 803 803 803 807 807 805 804 806 814 819 817 819 821 819 818 818 817 818 817 818 819 819 819 819 820 820 820 821 822 822 823 823 824 825 826 826 828 829 830 831 832 833 834 835 836 837 839 840 841 842 842 843 845 845 846 847 848 848 849 849 850 851 851 851 852 852 851 851 851 851 850 850
776 765 761 764 766 770 777 782 782 785 792 795 794 794 797 800 802 805 807 806 807 810 812 814 816 817 818 819 817 815 816 817 816 817 818 818 818 818 819 819 819 819 820 821 822 823 824 824 825 826 827 828 829 831 831 833 834 835 836 837 839 840 841 842 843 844 845 845 846 847 848 849 849 850 850 851 852 852 852 852 852 852 852 852 851 851
771 761 761 766 770 771 776 782 783 783 792 796 791 788 790 796 801 804 806 807 813 817 812 813 820 819 817 820 817 814 817 817 815 816 816 816 817 817 818 818 818 818 818 819 820 822 823 824 825 826 827 828 829 830 831 833 834 835 836 837 838 840 840 842 843 844 845 845 846 847 848 849 849 850 851 852 852 853 853 853 853 853 853 853 852 852
765 759 760 765 769 773 778 782 782 783 792 796 789 785 788 793 799 804 805 807 817 821 813 812 821 823 818 816 813 814 816 815 815 815 814 814 815 815 816 816 816 817 817 819 820 821 822 823 824 825 826 827 828 830 831 832 834 835 836 837 838 839 840 842 843 844 845 845 847 847 848 849 850 851 851 852 853 853 853 853 853 853 853 853 853 853
760 761 764 765 770 777 781 780 779 779 788 793 787 786 789 792 799 804 804 808 816 818 816 814 817 825 821 810 810 812 814 816 815 813 811 811 812 812 812 813 814 815 815 817 819 820 821 821 822 823 824 826 827 829 831 832 833 834 835 837 838 839 840 842 843 844 845 846 847 848 848 849 850 851 852 853 853 853 854 854 854 854 854 854 854 854
757 760 763 766 773 779 778 775 774 775 785 791 788 788 791 794 800 803 803 810 815 816 820 819 817 826 822 810 812 814 814 815 811 809 808 807 808 808 809 810 811 812 813 815 816 817 819 820 821 822 823 825 827 829 830 831 833 834 835 836 837 839 840 841 843 844 845 846 847 848 848 850 850 851 852 853 853 854 854 854 854 855 855 854 855 854
757 756 757 762 769 773 775 776 772 771 782 789 788 789 793 798 801 803 806 808 813 818 820 818 817 824 820 810 815 818 813 810 803 801 802 801 803 804 804 807 808 810 812 812 814 815 816 818 819 821 823 825 826 828 830 831 833 834 835 836 837 838 839 841 842 843 845 846 847 848 848 849 851 851 852 853 853 854 854 854 855 855 855 855 855 855
757 752 753 758 762 766 772 776 775 773 779 783 786 792 797 801 801 805 810 807 817 824 817 815 816 819 817 807 809 811 800 794 793 795 798 797 799 800 800 803 804 807 809 810 812 814 816 818 819 821 822 824 826 828 829 831 832 833 834 836 836 838 839 840 842 843 844 846 846 848 848 849 850 851 852 853 853 854 854 855 855 855 856 855 856 855
758 756 758 758 758 763 769 776 779 778 779 781 787 794 801 809 808 811 815 814 826 828 816 817 818 819 820 802 795 797 787 783 787 788 791 793 795 796 797 799 801 803 805 808 810 813 815 817 819 820 821 823 825 826 828 830 831 833 834 835 836 837 839 840 842 843 844 845 846 847 848 849 850 851 852 852 853 854 854 855 855 855 856 856 856 856
761 760 763 761 759 760 767 782 788 784 783 785 791 796 806 821 824 823 826 826 829 824 816 820 818 819 818 795 783 788 783 781 781 778 781 785 788 791 793 795 797 800 802 805 808 810 813 815 816 818 819 821 823 824 827 829 830 832 833 834 836 837 839 840 841 842 843 845 846 847 848 849 850 851 851 852 853 854 854 855 855 855 856 856 856 856
771 766 763 765 765 759 762 779 790 790 789 791 793 796 805 822 831 831 834 832 826 819 817 819 818 818 810 786 774 775 772 772 774 773 775 777 781 785 787 791 794 798 800 802 805 807 810 812 813 815 817 819 821 823 825 827 829 831 832 833 835 836 838 839 840 842 843 844 845 846 847 848 849 850 851 852 852 853 854 854 854 855 855 855 856 856
785 781 768 766 767 761 761 768 775 781 788 792 791 792 797 806 814 820 823 821 821 823 823 821 818 812 798 779 770 768 766 768 769 771 773 775 778 781 785 790 793 796 798 799 802 804 806 808 810 813 815 817 819 821 824 826 828 829 831 832 834 835 837 838 840 841 842 843 844 846 847 848 849 850 851 851 852 853 853 853 854 854 854 855 855 855
791 785 765 760 761 759 762 764 764 773 788 793 790 792 795 791 795 811 820 818 820 824 824 822 814 800 785 773 770 770 769 769 769 770 774 776 779 782 786 789 791 793 796 797 800 802 804 806 808 811 813 815 818 820 822 824 826 828 830 831 833 835 836 837 839 840 841 842 844 845 846 847 848 849 850 851 851 852 853 853 853 854 854 854 854 855
787 780 763 760 761 759 761 762 761 768 780 791 792 791 791 785 786 805 820 823 823 820 817 817 806 791 783 773 769 772 771 771 773 772 774 777 779 782 785 786 789 791 793 795 797 799 802 805 807 809 811 813 816 818 820 822 825 827 828 830 832 834 835 837 838 839 840 842 843 844 845 847 848 849 849 850 851 851 852 852 852 853 853 853 854 854
779 778 767 763 764 761 759 759 762 762 768 784 790 783 783 787 786 794 809 818 824 820 813 814 808 798 793 782 770 771 772 775 777 774 775 779 779 781 783 783 785 787 789 792 794 797 800 802 805 807 809 811 813 816 818 821 823 826 828 829 831 833 834 836 837 839 840 841 842 843 845 846 847 848 849 849 850 850 851 851 851 851 852 853 853 853
775 778 772 765 766 764 759 762 769 768 765 773 777 774 781 792 793 795 804 809 817 822 815 812 812 804 796 783 769 766 768 772 777 777 776 778 778 779 780 781 784 786 789 792 793 796 799 801 803 805 808 810 812 815 817 820 822 825 827 828 830 832 833 835 837 838 839 840 841 843 844 845 846 847 847 848 848 849 849 850 850 851 851 852 852 852
771 779 779 769 765 764 763 768 777 777 771 770 772 775 780 786 791 795 800 801 806 818 819 812 806 795 784 776 766 760 762 767 774 776 774 775 775 775 777 779 782 784 787 789 791 794 796 798 801 803 805 808 810 813 816 819 821 823 825 827 829 831 832 834 836 837 838 839 840 842 843 844 845 845 846 847 847 848 848 849 849 850 850 850 851 851
768 780 782 771 765 770 772 771 771 772 774 775 778 783 783 785 790 792 797 801 800 808 818 818 809 787 770 767 762 756 757 762 766 768 769 771 771 771 773 775 778 781 783 785 787 790 792 795 798 801 804 807 810 813 815 817 819 821 824 826 827 829 831 832 834 835 837 838 839 841 841 843 844 844 845 846 846 846 847 848 848 849 849 850 850 850
766 776 779 774 770 772 769 765 763 763 766 769 772 778 780 782 789 795 803 806 801 803 811 815 810 785 762 761 760 755 757 759 761 762 765 767 768 768 770 771 773 777 779 781 784 786 790 793 796 800 803 807 809 812 814 816 818 820 822 824 826 828 829 830 832 834 835 837 838 839 840 841 842 843 844 844 844 845 846 846 847 848 848 849 849 849
762 769 776 776 772 768 764 763 765 763 762 765 768 774 778 779 782 790 800 801 802 808 809 810 810 784 758 759 760 758 760 760 759 761 762 763 765 766 768 769 771 773 775 779 781 784 788 791 795 798 801 805 808 810 813 815 816 818 820 822 824 825 827 829 831 832 834 835 836 837 839 840 841 841 842 843 843 844 844 845 846 846 847 847 848 848
762 770 777 777 771 765 761 760 763 763 764 767 770 773 776 775 776 781 788 790 796 807 805 807 810 783 757 760 762 760 762 760 759 760 759 762 764 765 767 768 770 772 775 778 780 783 787 790 794 798 800 803 806 808 811 812 814 817 818 821 822 823 825 827 829 831 832 833 834 836 837 838 839 840 840 841 841 842 843 844 844 845 845 846 847 847
763 776 780 783 785 781 774 772 769 766 765 765 768 773 772 773 778 782 787 789 793 799 797 799 803 780 757 759 759 757 760 759 759 759 758 760 762 763 766 766 768 772 774 778 781 784 787 790 793 796 798 801 803 806 809 810 812 814 816 818 820 821 824 825 827 829 830 832 833 834 835 836 837 838 838 839 840 840 841 842 843 843 844 845 845 846
763 776 777 781 794 799 793 788 780 771 769 768 769 772 771 773 777 778 784 789 791 799 799 792 789 774 757 756 754 753 757 757 758 759 758 759 761 762 764 765 767 770 772 776 779 781 785 787 790 793 795 798 800 803 806 808 810 812 814 816 818 820 822 824 826 827 828 830 831 832 833 834 835 836 836 837 838 839 840 840 841 841 842 842 843 844
765 776 773 772 780 785 779 773 773 771 769 768 767 767 768 772 774 775 783 786 785 795 796 782 777 773 762 757 754 752 755 757 758 760 759 759 760 761 762 764 766 769 771 774 777 780 783 785 787 790 792 795 798 800 803 805 807 810 812 814 816 818 820 822 824 825 826 828 828 829 830 831 832 833 834 835 836 837 838 838 839 839 839 840 841 842
764 771 772 771 769 770 766 765 772 773 766 763 763 763 766 772 775 775 778 777 778 789 788 775 776 778 765 756 755 752 752 754 757 758 758 758 759 760 762 764 766 769 771 773 776 778 781 783 785 788 790 793 796 798 801 803 805 807 809 811 813 816 817 820 821 823 824 825 826 827 828 829 830 831 832 834 834 835 836 836 837 837 837 838 838 839
762 768 775 777 769 764 767 772 776 773 767 765 764 761 762 770 773 770 770 772 773 776 774 770 775 773 760 754 752 749 748 750 753 757 757 757 759 760 762 764 766 768 770 772 774 776 779 782 785 787 789 791 794 796 799 801 803 805 807 809 811 813 815 817 819 820 822 823 823 824 825 826 828 829 830 831 832 832 833 834 834 835 835 835 835 836
763 769 777 779 770 763 768 776 778 774 771 767 763 762 762 766 768 766 768 774 774 770 770 774 776 767 756 751 749 747 751 752 752 756 757 757 759 760 761 763 765 767 768 769 771 774 777 781 784 786 789 790 792 794 796 798 800 802 804 807 809 811 813 815 817 818 819 820 820 821 823 824 825 826 828 828 829 830 830 831 832 832 833 833 833 834
762 773 780 776 771 768 767 771 775 775 774 768 763 766 768 768 769 769 771 775 774 772 774 778 778 766 754 753 753 752 753 752 751 754 756 756 758 760 761 763 763 765 766 767 768 771 775 777 779 783 787 789 790 791 793 795 797 799 801 804 806 807 810 812 813 815 816 816 817 819 821 822 823 824 825 825 826 827 827 829 829 830 830 831 831 832
762 774 778 773 776 775 770 773 774 769 771 771 764 763 765 765 765 765 765 767 766 766 770 775 772 759 750 754 756 753 752 751 750 754 756 756 758 758 759 761 761 763 764 764 766 769 772 774 775 777 780 784 787 789 790 792 794 797 799 800 802 804 807 809 811 812 813 813 815 817 818 819 820 821 821 822 823 824 825 826 827 827 827 828 828 829
768 771 773 777 782 777 774 779 775 767 774 776 764 758 759 760 761 761 762 763 762 761 763 765 759 752 753 757 753 749 751 750 749 751 753 754 755 757 757 757 758 759 760 761 763 765 767 769 771 773 775 779 783 784 786 788 790 792 794 796 799 802 804 806 807 809 810 811 812 814 815 816 817 818 818 819 820 821 822 823 823 823 824 824 825 826
772 770 775 782 782 777 777 777 775 780 786 775 760 760 761 756 755 756 756 757 760 760 759 757 754 752 756 755 747 744 747 746 745 747 748 749 752 754 755 755 756 757 758 760 761 762 764 766 768 771 772 774 777 779 782 786 787 789 791 794 797 799 802 803 804 806 807 808 809 810 812 813 814 815 815 816 817 818 819 819 819 820 820 821 822 823
771 772 779 784 782 781 780 778 784 791 781 761 755 763 765 759 755 753 752 752 755 758 757 754 750 747 748 749 747 746 746 746 745 745 746 748 749 750 752 753 754 756 757 758 759 760 762 765 767 769 771 772 774 778 781 784 785 787 790 792 795 797 799 800 801 802 803 804 806 807 808 810 810 811 812 813 814 815 815 815 815 816 817 817 818 819
769 771 776 782 784 785 784 786 791 785 766 754 755 760 762 761 757 753 754 752 749 752 753 748 744 743 745 748 750 749 748 747 745 744 745 747 747 748 749 750 751 753 754 754 755 757 758 761 763 765 767 770 774 777 779 781 783 786 788 790 792 794 796 797 799 799 800 801 802 803 805 806 807 807 808 809 811 811 811 811 811 812 813 814 816 819
765 768 770 777 785 788 788 789 783 774 766 759 756 758 761 761 757 754 756 752 745 747 749 745 743 744 745 747 749 748 747 747 746 745 743 744 745 745 746 747 748 750 750 750 752 753 755 757 760 762 765 769 772 774 776 778 780 783 786 788 790 792 793 795 795 796 797 798 798 799 801 802 803 804 805 806 807 807 807 807 807 808 810 811 813 814
762 764 765 773 785 791 791 788 783 783 779 765 757 758 760 763 762 756 756 752 743 742 746 744 743 745 745 747 749 747 747 749 750 745 741 742 743 743 744 746 747 747 749 750 752 753 755 757 759 762 765 768 770 772 775 779 782 784 785 786 787 789 791 792 792 792 794 794 794 796 797 799 800 801 802 803 803 802 802 803 803 804 806 807 807 809
766 767 765 770 782 787 786 786 789 786 775 764 762 760 759 764 761 754 760 760 744 739 746 744 741 745 745 745 747 747 748 753 752 744 739 740 741 741 742 744 744 745 747 748 750 752 754 756 759 762 765 767 769 772 775 779 783 785 785 785 785 786 787 788 788 788 789 789 791 793 795 797 797 798 798 798 798 798 798 799 800 801 803 804 805 808
770 772 771 772 778 783 783 783 784 777 767 765 767 763 761 763 758 760 774 768 742 735 745 743 738 742 745 746 748 747 746 749 747 741 739 740 740 740 740 740 742 744 745 746 748 751 753 756 758 760 763 765 766 769 772 774 777 780 781 783 784 784 783 783 783 784 785 786 789 792 792 793 793 794 794 794 794 794 795 797 798 799 800 802 804 807
776 777 780 777 777 783 784 781 778 771 767 770 769 764 761 760 758 766 773 762 744 740 744 741 738 741 745 746 746 743 741 741 741 739 738 739 739 738 739 739 740 742 743 745 747 749 751 754 755 757 759 761 763 765 768 771 773 774 776 779 782 780 778 778 779 780 782 784 786 788 788 788 789 790 790 790 791 792 793 794 795 796 798 800 803 805
781 782 785 782 780 784 784 780 778 773 770 772 769 761 759 759 762 767 764 758 754 748 742 740 740 741 744 745 742 740 739 738 739 739 738 738 738 737 738 739 740 741 742 744 746 747 749 751 752 754 757 759 760 762 765 768 770 771 772 775 776 773 773 774 776 778 779 781 782 783 784 785 786 786 786 788 789 790 791 791 793 794 795 798 801 803
784 782 783 782 784 786 783 780 780 776 772 773 767 761 763 765 767 769 765 759 755 749 745 743 739 739 744 743 740 741 740 737 738 739 738 738 738 737 738 739 738 739 741 742 744 745 747 749 750 751 754 757 759 760 763 765 766 768 770 771 769 768 770 772 774 775 777 778 779 780 781 781 782 783 784 785 786 788 788 789 790 792 794 797 800 801
784 783 784 784 783 783 780 779 780 777 774 774 770 768 772 772 769 770 769 761 754 752 750 745 740 740 743 740 739 741 740 738 738 737 737 737 737 738 739 739 738 739 740 741 742 744 745 747 748 749 752 756 758 759 761 763 764 766 767 766 765 766 768 770 772 774 775 776 776 777 778 779 780 781 782 783 784 785 786 787 789 791 793 796 797 797
782 780 781 783 781 780 779 778 778 776 775 774 772 771 772 770 767 768 766 761 760 759 755 750 746 744 743 742 740 740 739 739 738 738 738 738 739 740 740 739 739 739 740 741 742 743 744 745 747 749 751 753 755 757 759 760 761 763 764 763 763 765 767 769 770 772 773 773 774 775 776 777 778 779 780 780 781 782 783 785 787 789 791 793 793 793
780 780 780 780 779 779 778 776 775 775 774 772 771 770 768 766 766 764 760 758 760 761 758 755 752 749 747 746 743 740 740 740 739 739 741 741 741 743 742 740 741 740 740 741 742 743 745 746 747 749 750 752 754 755 757 758 759 760 760 760 762 764 765 767 769 770 770 771 772 773 774 775 776 776 777 778 779 780 781 783 784 786 788 789 790 790
779 781 780 779 780 779 777 775 773 773 772 771 770 768 766 764 764 762 759 756 757 759 758 756 754 754 753 751 747 744 743 743 742 742 743 744 744 744 744 744 744 743 742 743 743 744 745 746 747 748 749 750 752 753 755 756 757 758 758 759 761 763 764 766 767 767 768 769 770 771 772 773 774 774 775 776 777 779 780 781 783 784 785 786 787 788
780 781 779 779 781 779 776 774 772 771 770 770 769 767 766 765 764 763 762 757 755 756 756 755 755 756 757 757 755 750 747 747 747 746 746 747 747 746 747 747 746 745 745 744 744 746 746 747 748 749 750 751 752 753 754 755 756 757 758 759 761 762 763 764 765 766 767 768 769 770 771 771 772 773 774 775 776 777 779 780 781 782 782 783 784 786
781 782 781 781 781 778 774 771 772 772 769 765 764 765 764 764 765 765 764 760 755 754 755 755 756 758 759 761 761 756 752 753 752 750 750 751 750 750 749 748 747 747 747 746 747 748 748 748 750 750 751 752 753 754 755 755 756 758 758 759 761 762 762 763 764 765 767 767 768 769 770 771 772 772 773 775 776 777 778 779 780 781 781 782 784 785
779 780 781 783 782 778 772 767 768 770 767 762 763 765 762 761 765 767 767 763 759 756 756 756 757 757 757 760 764 764 762 759 757 755 755 754 754 754 752 750 749 748 747 748 749 749 749 749 750 750 752 753 753 754 755 756 757 758 758 759 761 762 763 764 765 766 767 768 768 769 770 770 771 772 773 774 775 776 777 778 779 780 780 782 783 784
773 773 774 777 777 773 768 765 766 767 765 764 766 766 764 763 765 768 770 769 765 763 760 758 758 759 757 759 763 768 769 766 761 758 758 758 758 757 755 753 752 751 750 750 749 750 751 751 751 752 753 754 755 756 756 757 758 759 760 761 762 763 764 765 766 767 768 768 769 769 770 771 771 772 772 773 774 775 776 777 778 779 780 781 782 784